AJISAI (EGS)

Last updated on Mon Nov 03 2025 00:02:16 GMT+0000 (Coordinated Universal Time)

1 16908U 86061A 25306.50238764 -.00000078 00000+0 13666-3 0 9996 2 16908 50.0064 124.4444 0011140 324.3032 74.4174 12.44514119452165
UTC large
Height (km)
Speed (km/s)
/
Latitude / Longitude
Inclination (degrees)
Orbital Period (minutes)
Azimuth
Elevation
Range (km)
Doppler Factor

Next 0 passes for location: London (51.5072 / 0.1276)

Sorry there are no passes over London.